Regional Weather Roundup
Issued by NWS Cleveland, OH

Home | Current Version | Previous Version | Graphics & Text | Print | Product List | Glossary On
Versions: 1 2 3 4 5 6 7 8 9 10 11 12 13 14 15 16 17 18 19 20 21 22 23 24 25 26 27 28 29 30 31 32 33 34 35 36 37 38 39 40 41 42 43 44 45 46 47 48 49 50
000
ASUS41 KCLE 281202
RWRCLE
OHIO REGIONAL WEATHER ROUNDUP
NATIONAL WEATHER SERVICE CLEVELAND, OH
700 AM EST SUN DEC 28 2014

NOTE: "FAIR" INDICATES FEW OR NO CLOUDS BELOW 12,000 FEET WITH NO
SIGNIFICANT WEATHER AND/OR OBSTRUCTIONS TO VISIBILITY.

OHZ001>008-015>018-024>027-034-035-043-044-281300-
   NORTHWEST OHIO

CITY           SKY/WX    TMP DP  RH WIND       PRES   REMARKS
DEFIANCE       CLOUDY    35  29  78 W7        30.09R WCI  29
FINDLAY        MOCLDY    34  30  85 W8        30.08R WCI  27
TOLEDO EXPRESS CLOUDY    34  30  85 W8        30.08R WCI  27
TOLEDO EXEC    CLOUDY    36  30  79 W8        30.08R
LIMA           CLOUDY    35  30  82 W8        30.09R WCI  29
$$

OHZ009>014-019>023-028>033-038-089-281300-
   NORTHEAST OHIO

CITY           SKY/WX    TMP DP  RH WIND       PRES   REMARKS
CLE-HOPKINS    CLOUDY    36  32  85 W8        30.08R
CLE-LAKEFRONT  CLOUDY    37  34  89 W14       30.05R
CUY CO. ARPT   CLOUDY    37  36  93 W12       30.04
LORAIN-ELYRIA  CLOUDY    35  50 100 W6        30.07R
ASHTABULA      CLOUDY    36  34  92 W7        30.02R
AKRON-CANTON   LGT SNOW  36  33  89 NW12      30.03R FOG
WOOSTER        CLOUDY    35  32  88 NW12      30.05R WCI  27
MANSFIELD      CLOUDY    34  33  96 NW10      30.05R WCI  26
YOUNGSTOWN     LGT SNOW  35  34  96 W12       30.01R FOG     WCI  27
$$

OHZ042-051>053-060>062-070>072-077>081-281300-
  SOUTHWEST OHIO

CITY           SKY/WX    TMP DP  RH WIND       PRES   REMARKS
CINC-COVINGTON DRIZZLE   36  31  82 N8        30.11R
CINC-LUNKEN    CLOUDY    36  35  96 NW6       30.14R FOG
HAMILTON       CLOUDY    36  34  92 NW8       30.13R
DAYTON         CLOUDY    35  32  88 NW12      30.11R FOG     WCI  27
WRIGHT-PAT AFB CLOUDY    34  32  93 NW6       30.10R WCI  29
DAYTON GENERAL CLOUDY    34  33  96 NW8       30.10R FOG     WCI  27
WILMINGTON     CLOUDY    35  33  92 NW14      30.09R FOG     WCI  26
$$

OHZ036-037-039>041-045>050-054>059-063>069-073>076-082>088-281300-
  CENTRAL AND SOUTHEAST OHIO

CITY           SKY/WX    TMP DP  RH WIND       PRES   REMARKS
COLUMBUS       CLOUDY    36  36 100 NW12      30.07R FOG
OSU AIRPORT    CLOUDY    35  33  92 NW13      30.07S FOG     WCI  26
BOLTON FIELD   NOT AVBL
RICKENBACK AFB DRIZZLE   36  35  96 NW5       30.08R
NEWARK         CLOUDY    37  35  92 NW6       30.06R
MARION         CLOUDY    35  31  85 NW9       30.08R WCI  28
LANCASTER      CLOUDY    38  37  97 NW7       30.07R FOG
ZANESVILLE     LGT RAIN  39  37  92 NW10      30.05R FOG
NEW PHILLY     LGT RAIN  39  37  92 NW7       30.05R FOG
$$



USA.gov is the U.S. government's official web portal to all federal, state and local government web resources and services.